This demonstration page uses our WeatherBlox Daily Observations layout. Learn more.

Left ArrowRight Arrow

Hourly Observations for December 7, 2019

Temp ( °F °C ) Dew Point ( °F °C ) Humidity (%) Winds ( mph kmh ) Pressure ( in mb ) Visibility ( mi km ) Precip ( " mm )
12:51 am 00:51 Clear 52 11.1 42 5.6 69 69 ESE 7 11 30.16 1021 10 16 N/A
1:51 am 01:51 Clear 52 11.1 42 5.6 69 69 ESE 8 13 30.15 1021 10 16 N/A
2:51 am 02:51 Clear 53 11.7 42 5.6 66 66 ESE 8 13 30.14 1021 10 16 N/A
3:51 am 03:51 Clear 51 10.6 41 5 69 69 ESE 8 13 30.14 1021 10 16 N/A
4:51 am 04:51 Clear 49 9.4 41 5 74 74 NE 3 6 30.14 1021 10 16 N/A
5:51 am 05:51 Clear 44 6.7 41 5 89 89 N N/A 30.16 1022 10 16 N/A
6:51 am 06:51 Clear 44 6.7 41 5 89 89 N N/A 30.19 1022 10 16 N/A
7:51 am 07:51 Sunny 47 8.3 42 5.6 83 83 ENE 6 9 30.19 1022 10 16 N/A
8:51 am 08:51 Sunny 52 11.1 41 5 66 66 ESE 8 13 30.19 1023 10 16 N/A
9:51 am 09:51 Sunny 57 13.9 41 5 55 55 ESE 8 13 30.21 1023 10 16 N/A
10:51 am 10:51 Sunny 61 16.1 41 5 48 48 SE 8 13 30.19 1022 10 16 N/A
11:51 am 11:51 Sunny 63 17.2 42 5.6 47 47 SSE 6 9 30.16 1021 10 16 N/A
12:51 pm 12:51 Sunny 64 17.8 43 6.1 46 46 N N/A 30.11 1020 10 16 N/A
1:51 pm 13:51 Sunny 66 18.9 42 5.6 42 42 S 5 7 30.07 1018 10 16 N/A
2:51 pm 14:51 Sunny 66 18.9 42 5.6 42 42 N N/A 30.05 1018 10 16 N/A
3:51 pm 15:51 Sunny 67 19.4 41 5 39 39 N N/A 30.04 1017 10 16 N/A
4:51 pm 16:51 Sunny 65 18.3 43 6.1 45 45 N N/A 30.04 1017 10 16 N/A
5:51 pm 17:51 Clear 61 16.1 47 8.3 60 60 ESE 3 6 30.05 1018 10 16 N/A
6:51 pm 18:51 Clear 59 15 48 8.9 67 67 ENE 5 7 30.06 1018 10 16 N/A
7:51 pm 19:51 Clear 57 13.9 48 8.9 72 72 W 5 7 30.07 1018 10 16 N/A
8:51 pm 20:51 Clear 55 12.8 47 8.3 74 74 N N/A 30.04 1017 10 16 N/A
9:51 pm 21:51 Cloudy 56 13.3 48 8.9 75 75 N N/A 30.02 1017 10 16 N/A
10:51 pm 22:51 Cloudy 55 12.8 48 8.9 77 77 NW 8 13 30.04 1017 10 16 N/A
11:51 pm 23:51 Cloudy 56 13.3 48 8.9 75 75 W 7 11 30.04 1017 10 16 N/A

Powered by AerisWeather